Date,TemperatureHighF,TemperatureAvgF,TemperatureLowF,DewpointHighF,DewpointAvgF,DewpointLowF,HumidityHigh,HumidityAvg,HumidityLow,PressureMaxIn,PressureMinIn,WindSpeedMaxMPH,WindSpeedAvgMPH,GustSpeedMaxMPH,PrecipitationSumIn
2013-1-1,18,9,-3,-100,-100,-100,0,0,100,0.00,40.00,5,1,12,0.00
2013-1-2,23,17,13,-100,-100,-100,0,0,100,0.00,40.00,8,2,14,0.00
2013-1-3,24,18,13,-100,-100,-100,0,0,100,0.00,40.00,8,2,18,0.00
2013-1-4,35,19,11,-100,-100,-100,0,0,100,0.00,40.00,6,2,18,0.00
2013-1-5,31,20,4,-100,-100,-100,0,0,100,0.00,40.00,8,2,16,0.00
2013-1-6,28,22,10,-100,-100,-100,0,0,100,0.00,40.00,6,1,13,0.00
2013-1-7,35,24,11,-100,-100,-100,0,0,100,0.00,40.00,16,6,26,0.00
2013-1-8,43,26,8,-100,-100,-100,0,0,100,0.00,40.00,13,3,23,0.00
2013-1-9,35,30,18,-100,-100,-100,0,0,100,0.00,40.00,14,5,28,0.00
2013-1-10,42,33,17,-100,-100,-100,0,0,100,0.00,40.00,9,4,16,0.12
2013-1-11,40,36,33,-100,-100,-100,0,0,100,0.00,40.00,9,3,17,0.12
2013-1-12,43,29,16,-100,-100,-100,0,0,100,0.00,40.00,17,6,35,0.00
2013-1-13,18,14,7,-100,-100,-100,0,0,100,0.00,40.00,5,1,13,0.00
2013-1-14,16,8,2,-100,-100,-100,0,0,100,0.00,40.00,7,2,15,0.00
2013-1-15,29,18,1,-100,-100,-100,0,0,100,0.00,40.00,12,5,20,0.00
2013-1-16,27,22,13,-100,-100,-100,0,0,100,0.00,40.00,15,5,22,0.03
2013-1-17,12,5,-4,-100,-100,-100,0,0,100,0.00,40.00,8,2,15,0.01
2013-1-18,23,13,-5,-100,-100,-100,0,0,100,0.00,40.00,3,1,12,0.29
2013-1-19,36,23,4,-100,-100,-100,0,0,100,0.00,40.00,10,4,29,0.02
2013-1-20,8,2,-6,-100,-100,-100,0,0,100,0.00,40.00,6,2,18,0.00
2013-1-21,-5,-10,-13,-100,-100,-100,0,0,100,0.00,40.00,9,3,20,0.00
2013-1-22,3,-9,-18,-100,-100,-100,0,0,100,0.00,40.00,5,1,12,0.00
2013-1-23,10,-3,-20,-100,-100,-100,0,0,100,0.00,40.00,7,1,17,0.00
2013-1-24,11,0,-17,-100,-100,-100,0,0,100,0.00,40.00,6,1,10,0.01
2013-1-25,19,11,5,-100,-100,-100,0,0,100,0.00,40.00,5,2,12,0.17
2013-1-26,25,15,6,-100,-100,-100,0,0,100,0.00,40.00,7,2,10,0.01
2013-1-27,32,24,18,-100,-100,-100,0,0,100,0.00,40.00,7,3,14,0.25
2013-1-28,37,30,26,-100,-100,-100,0,0,100,0.00,40.00,5,1,10,0.38
2013-1-29,35,32,29,-100,-100,-100,0,0,100,0.00,40.00,6,2,13,0.60
2013-1-30,30,20,12,-100,-100,-100,0,0,100,0.00,40.00,12,4,24,0.24
2013-1-31,14,7,1,-100,-100,-100,0,0,100,0.00,40.00,7,3,16,0.01